Location: Les Jeannots
(43.2262°N, 5.5774°E)
Time: 00:39:26
(UTC+00:00)

SL-16 R/B - Pass Details

Date: 05 July 2020
Orbit: 839 x 850 km, 71.0° (Epoch: 11 August)

Event Time Altitude Azimuth Distance (km) Brightness Sun altitude
Exits shadow 23:00:42 56° 165° (SSE) 995 2.2 -23.4°
Maximum altitude 23:01:44 69° 111° (ESE) 903 2.1 -23.4°
Drops below altitude 10° 23:07:22 10° 29° (NNE) 2,478 5.3 -23.6°
Sets 23:09:51 0° 27° (NNE) 3,419 6.2 -23.7°
